QPF
0.00 0.00 0.00 0.00 0.00 0.00 0.00 0.00 0.00 0.00 0.00 0.00 0.00 0.00 0.00 0.00 0.00 0.00 0.00 0.00 0.00 0.00 0.00 0.00 0.00 0.00 0.01 0.01 0.01 0.01 0.01 0.01 0.06 0.07 0.08 0.07 0.08 0.11 0.11 0.08 0.06 0.03 0.03 0.06 0.12 0.18 0.25 0.34 0.30
0.00 0.00 0.00 0.00 0.00 0.00 0.00 0.00 0.00 0.00 0.00 0.00 0.00 0.00 0.00 0.00 0.00 0.00 0.00 0.00 0.00 0.00 0.00 0.00 0.00 0.00 0.00 0.00 0.00 0.00 0.00 0.00 0.02 0.05 0.07 0.09 0.06 0.06 0.04 0.07 0.09 0.07 0.03 0.01 0.02 0.07 0.16 0.28 0.24
0.00 0.00 0.00 0.00 0.00 0.00 0.00 0.00 0.00 0.00 0.00 0.00 0.00 0.00 0.00 0.00 0.00 0.00 0.00 0.00 0.00 0.00 0.00 0.00 0.00 0.00 0.00 0.00 0.00 0.00 0.00 0.00 0.00 0.01 0.02 0.04 0.05 0.03 0.02 0.01 0.01 0.01 0.01 0.00 0.00 0.01 0.04 0.08 0.11
0.00 0.00 0.00 0.00 0.00 0.00 0.00 0.00 0.00 0.00 0.00 0.00 0.00 0.00 0.00 0.00 0.00 0.00 0.00 0.00 0.00 0.00 0.00 0.00 0.00 0.00 0.00 0.00 0.00 0.00 0.00 0.00 0.00 0.00 0.00 0.01 0.02 0.03 0.03 0.01 0.00 0.00 0.00 0.00 0.01 0.01 0.01 0.02 0.03
0.00 0.00 0.00 0.00 0.00 0.00 0.00 0.00 0.00 0.00 0.00 0.00 0.00 0.00 0.00 0.00 0.00 0.00 0.00 0.00 0.00 0.00 0.00 0.00 0.00 0.00 0.00 0.00 0.00 0.00 0.00 0.00 0.00 0.00 0.00 0.00 0.00 0.00 0.02 0.02 0.01 0.00 0.00 0.00 0.01 0.03 0.03 0.01 0.01
0.00 0.00 0.00 0.00 0.00 0.00 0.00 0.00 0.00 0.00 0.00 0.00 0.00 0.00 0.00 0.00 0.00 0.00 0.00 0.00 0.00 0.00 0.00 0.00 0.00 0.00 0.00 0.00 0.00 0.00 0.00 0.00 0.00 0.00 0.00 0.00 0.00 0.00 0.00 0.00 0.01 0.00 0.00 0.00 0.00 0.02 0.05 0.03 0.01
0.00 0.00 0.00 0.00 0.00 0.00 0.00 0.00 0.00 0.00 0.00 0.00 0.00 0.00 0.00 0.00 0.00 0.00 0.00 0.00 0.00 0.00 0.00 0.00 0.00 0.00 0.00 0.00 0.00 0.00 0.00 0.00 0.00 0.00 0.00 0.00 0.00 0.00 0.00 0.00 0.00 0.00 0.00 0.00 0.00 0.00 0.01 0.02 0.02
0.00 0.00 0.00 0.00 0.00 0.00 0.00 0.00 0.00 0.00 0.00 0.00 0.00 0.00 0.00 0.00 0.00 0.00 0.00 0.00 0.00 0.00 0.00 0.00 0.00 0.00 0.00 0.00 0.00 0.00 0.00 0.00 0.00 0.00 0.00 0.00 0.00 0.00 0.00 0.00 0.00 0.00 0.00 0.00 0.00 0.00 0.00 0.00 0.00
0.00 0.00 0.00 0.00 0.00 0.00 0.00 0.00 0.00 0.00 0.00 0.00 0.00 0.00 0.00 0.00 0.00 0.00 0.00 0.00 0.00 0.00 0.00 0.00 0.00 0.00 0.00 0.00 0.00 0.00 0.00 0.00 0.00 0.00 0.00 0.00 0.00 0.00 0.00 0.00 0.00 0.00 0.00 0.00 0.00 0.00 0.00 0.00 0.00
0.00 0.00 0.00 0.00 0.00 0.00 0.00 0.00 0.00 0.00 0.00 0.00 0.00 0.00 0.00 0.00 0.00 0.00 0.00 0.00 0.00 0.00 0.00 0.00 0.00 0.00 0.00 0.00 0.00 0.00 0.00 0.00 0.00 0.00 0.00 0.00 0.00 0.00 0.00 0.00 0.00 0.00 0.00 0.00 0.00 0.00 0.00 0.00 0.00
0.00 0.00 0.00 0.00 0.00 0.00 0.00 0.00 0.00 0.00 0.00 0.00 0.00 0.00 0.00 0.00 0.00 0.00 0.00 0.00 0.00 0.00 0.00 0.00 0.00 0.00 0.00 0.00 0.00 0.00 0.00 0.00 0.00 0.00 0.00 0.00 0.00 0.00 0.00 0.00 0.00 0.00 0.00 0.00 0.00 0.00 0.00 0.00 0.00
0.00 0.00 0.00 0.00 0.00 0.00 0.00 0.00 0.00 0.00 0.00 0.00 0.00 0.00 0.00 0.00 0.00 0.00 0.00 0.00 0.00 0.00 0.00 0.00 0.00 0.00 0.00 0.00 0.00 0.00 0.00 0.00 0.00 0.00 0.00 0.00 0.00 0.00 0.00 0.00 0.00 0.00 0.00 0.00 0.00 0.00 0.00 0.00 0.00
0.00 0.00 0.00 0.00 0.00 0.00 0.00 0.00 0.00 0.00 0.00 0.00 0.00 0.00 0.00 0.00 0.00 0.00 0.00 0.00 0.00 0.00 0.00 0.00 0.00 0.00 0.00 0.00 0.00 0.00 0.00 0.00 0.00 0.00 0.00 0.00 0.00 0.00 0.00 0.00 0.00 0.00 0.00 0.00 0.00 0.00 0.00 0.00 0.00
0.00 0.00 0.00 0.00 0.00 0.00 0.00 0.00 0.00 0.00 0.00 0.00 0.00 0.00 0.00 0.00 0.00 0.00 0.00 0.00 0.00 0.00 0.00 0.00 0.00 0.00 0.00 0.00 0.00 0.00 0.00 0.00 0.00 0.00 0.00 0.00 0.00 0.00 0.00 0.00 0.00 0.00 0.00 0.00 0.00 0.00 0.00 0.00 0.00
0.00 0.00 0.00 0.00 0.00 0.00 0.00 0.00 0.00 0.00 0.00 0.00 0.00 0.00 0.00 0.00 0.00 0.00 0.00 0.00 0.00 0.00 0.00 0.00 0.00 0.00 0.00 0.00 0.00 0.00 0.00 0.00 0.00 0.00 0.00 0.00 0.00 0.00 0.00 0.00 0.00 0.00 0.00 0.00 0.00 0.00 0.00 0.00 0.00
0.00 0.00 0.00 0.00 0.00 0.00 0.00 0.00 0.00 0.00 0.00 0.00 0.00 0.00 0.00 0.00 0.00 0.00 0.00 0.00 0.00 0.00 0.00 0.00 0.00 0.00 0.00 0.00 0.00 0.00 0.00 0.00 0.00 0.00 0.00 0.00 0.00 0.00 0.00 0.00 0.00 0.00 0.00 0.00 0.00 0.00 0.00 0.00 0.00
0.00 0.00 0.00 0.00 0.00 0.00 0.00 0.00 0.00 0.00 0.00 0.00 0.00 0.00 0.00 0.00 0.00 0.00 0.00 0.00 0.00 0.00 0.00 0.00 0.00 0.00 0.00 0.00 0.00 0.00 0.00 0.00 0.00 0.00 0.00 0.00 0.00 0.00 0.00 0.00 0.00 0.00 0.00 0.00 0.00 0.00 0.00 0.00 0.00
0.00 0.00 0.00 0.00 0.00 0.00 0.00 0.00 0.00 0.00 0.00 0.00 0.00 0.00 0.00 0.00 0.00 0.00 0.00 0.00 0.00 0.00 0.00 0.00 0.00 0.00 0.00 0.00 0.00 0.00 0.00 0.00 0.00 0.00 0.00 0.00 0.00 0.00 0.00 0.00 0.00 0.00 0.00 0.00 0.00 0.00 0.00 0.00 0.00
0.00 0.00 0.00 0.00 0.00 0.00 0.00 0.00 0.00 0.00 0.00 0.00 0.00 0.00 0.00 0.00 0.00 0.00 0.00 0.00 0.00 0.00 0.00 0.00 0.00 0.00 0.00 0.00 0.00 0.00 0.00 0.00 0.00 0.00 0.00 0.00 0.00 0.00 0.00 0.00 0.00 0.00 0.00 0.00 0.00 0.00 0.00 0.00 0.00
0.00 0.00 0.00 0.00 0.00 0.00 0.00 0.00 0.00 0.00 0.00 0.00 0.00 0.00 0.00 0.00 0.00 0.00 0.00 0.00 0.00 0.00 0.00 0.00 0.00 0.00 0.00 0.00 0.00 0.00 0.00 0.00 0.00 0.00 0.00 0.00 0.00 0.00 0.00 0.00 0.00 0.00 0.00 0.00 0.00 0.00 0.00 0.00 0.00
0.00 0.00 0.00 0.00 0.00 0.00 0.00 0.00 0.00 0.00 0.00 0.00 0.00 0.00 0.00 0.00 0.00 0.00 0.00 0.00 0.00 0.00 0.00 0.00 0.00 0.00 0.00 0.00 0.00 0.00 0.00 0.00 0.00 0.00 0.00 0.00 0.00 0.00 0.00 0.00 0.00 0.00 0.00 0.00 0.00 0.00 0.00 0.00 0.00
0.00 0.00 0.00 0.00 0.00 0.00 0.00 0.00 0.00 0.00 0.00 0.00 0.00 0.00 0.00 0.00 0.00 0.00 0.00 0.00 0.00 0.00 0.00 0.00 0.00 0.00 0.00 0.00 0.00 0.00 0.00 0.00 0.00 0.00 0.00 0.00 0.00 0.00 0.00 0.00 0.00 0.00 0.00 0.00 0.00 0.00 0.00 0.00 0.00
0.00 0.00 0.00 0.00 0.00 0.00 0.00 0.00 0.00 0.00 0.00 0.00 0.00 0.00 0.00 0.00 0.00 0.00 0.00 0.00 0.00 0.00 0.00 0.00 0.00 0.00 0.00 0.00 0.00 0.00 0.00 0.00 0.00 0.00 0.00 0.00 0.00 0.00 0.00 0.00 0.00 0.00 0.00 0.00 0.00 0.00 0.00 0.00 0.00
0.00 0.00 0.00 0.00 0.00 0.00 0.00 0.00 0.00 0.00 0.00 0.00 0.00 0.00 0.00 0.00 0.00 0.00 0.00 0.00 0.00 0.00 0.00 0.00 0.00 0.00 0.00 0.00 0.00 0.00 0.00 0.00 0.00 0.00 0.00 0.00 0.00 0.00 0.00 0.00 0.00 0.00 0.00 0.00 0.00 0.00 0.00 0.00 0.00
0.00 0.00 0.00 0.00 0.00 0.00 0.00 0.00 0.00 0.00 0.00 0.00 0.00 0.00 0.00 0.00 0.00 0.00 0.00 0.00 0.00 0.00 0.00 0.00 0.00 0.00 0.00 0.00 0.00 0.00 0.00 0.00 0.00 0.00 0.00 0.00 0.00 0.00 0.00 0.00 0.00 0.00 0.00 0.00 0.00 0.00 0.00 0.00 0.00
0.00 0.00 0.00 0.00 0.00 0.00 0.00 0.00 0.00 0.00 0.00 0.00 0.00 0.00 0.00 0.00 0.00 0.00 0.00 0.00 0.00 0.00 0.00 0.00 0.00 0.00 0.00 0.00 0.00 0.00 0.00 0.00 0.00 0.00 0.00 0.00 0.00 0.00 0.00 0.00 0.00 0.00 0.00 0.00 0.00 0.00 0.00 0.00 0.00
0.00 0.00 0.00 0.00 0.00 0.00 0.00 0.00 0.00 0.00 0.00 0.00 0.00 0.00 0.00 0.00 0.00 0.00 0.00 0.00 0.00 0.00 0.00 0.00 0.00 0.00 0.00 0.00 0.00 0.00 0.00 0.00 0.00 0.00 0.00 0.00 0.00 0.00 0.00 0.00 0.00 0.00 0.00 0.00 0.00 0.00 0.00 0.00 0.00
0.00 0.00 0.00 0.00 0.00 0.00 0.00 0.00 0.00 0.00 0.00 0.00 0.00 0.00 0.00 0.00 0.00 0.00 0.00 0.00 0.00 0.00 0.00 0.00 0.00 0.00 0.00 0.00 0.00 0.00 0.00 0.00 0.00 0.00 0.00 0.00 0.00 0.00 0.00 0.00 0.00 0.00 0.00 0.00 0.00 0.00 0.00 0.00 0.00
0.00 0.00 0.00 0.00 0.00 0.00 0.00 0.00 0.00 0.00 0.00 0.00 0.00 0.00 0.00 0.00 0.00 0.00 0.00 0.00 0.00 0.00 0.00 0.00 0.00 0.00 0.00 0.00 0.00 0.00 0.00 0.00 0.00 0.00 0.00 0.00 0.00 0.00 0.00 0.00 0.00 0.00 0.00 0.00 0.00 0.00 0.00 0.00 0.00
0.00 0.00 0.00 0.00 0.00 0.00 0.00 0.00 0.00 0.00 0.00 0.00 0.00 0.00 0.00 0.00 0.00 0.00 0.00 0.00 0.00 0.00 0.00 0.00 0.00 0.00 0.00 0.00 0.00 0.00 0.00 0.00 0.00 0.00 0.00 0.00 0.00 0.00 0.00 0.00 0.00 0.00 0.00 0.00 0.00 0.00 0.00 0.00 0.00
MSLP
1014.44 1014.43 1014.49 1014.79 1016.10 1016.94 1017.98 1018.91 1019.58 1020.65 1022.13 1023.60 1023.26 1023.82 1025.02 1026.36 1027.29 1029.36 1030.40 1030.57 1030.47 1030.04 1029.35 1028.22 1026.73 1025.82 1024.76 1023.84 1023.18 1022.61 1022.00 1021.47 1020.74 1020.16 1019.75 1019.49 1019.14 1018.54 1018.07 1017.85 1017.55 1017.29 1017.12 1016.95 1016.87 1016.91 1016.95 1017.11 1017.06
1014.38 1014.44 1014.90 1015.84 1016.89 1018.13 1019.23 1019.82 1020.91 1022.34 1023.26 1024.33 1024.94 1025.79 1026.45 1028.41 1028.99 1030.05 1030.87 1031.29 1030.94 1030.36 1029.96 1028.66 1027.47 1026.48 1025.57 1024.70 1024.18 1023.48 1022.84 1022.23 1021.69 1021.22 1020.77 1020.42 1019.98 1019.34 1018.93 1018.74 1018.26 1017.81 1017.50 1017.19 1017.06 1017.06 1017.08 1017.27 1017.46
1014.48 1014.64 1015.60 1016.78 1018.28 1019.28 1020.15 1021.12 1022.50 1023.73 1024.46 1024.90 1026.31 1027.59 1028.80 1030.22 1030.65 1031.34 1031.92 1031.52 1031.05 1030.43 1030.16 1029.63 1028.26 1027.18 1026.24 1025.63 1025.09 1024.26 1023.63 1023.18 1022.47 1022.04 1021.63 1021.26 1020.92 1020.31 1019.88 1019.64 1019.29 1018.70 1018.14 1017.61 1017.29 1017.15 1017.17 1017.24 1017.34
1014.90 1015.44 1016.98 1017.30 1018.98 1020.31 1021.18 1022.21 1023.22 1024.28 1025.14 1025.87 1027.25 1028.94 1030.48 1031.43 1031.28 1031.88 1032.02 1031.79 1031.47 1031.13 1030.53 1029.61 1028.42 1027.81 1026.84 1026.22 1025.63 1024.83 1024.22 1023.78 1023.34 1022.90 1022.47 1022.10 1021.84 1021.28 1020.71 1020.39 1019.99 1019.49 1018.96 1018.34 1017.84 1017.35 1017.19 1017.15 1017.23
1015.64 1016.37 1017.44 1018.86 1020.12 1021.28 1022.26 1023.12 1023.90 1024.82 1026.05 1026.98 1027.49 1029.50 1030.75 1031.58 1031.87 1031.95 1031.84 1031.59 1031.19 1030.92 1030.60 1030.41 1029.29 1028.01 1027.20 1026.67 1026.05 1025.45 1025.11 1024.59 1024.15 1023.86 1023.52 1023.08 1022.70 1022.19 1021.68 1021.29 1020.90 1020.24 1019.66 1019.12 1018.54 1017.86 1017.39 1017.11 1017.08
1016.25 1017.08 1018.08 1019.37 1020.54 1021.88 1023.07 1023.96 1024.74 1025.87 1026.85 1027.67 1028.34 1029.50 1031.23 1031.85 1031.92 1031.98 1031.89 1031.69 1031.57 1031.27 1030.89 1030.36 1029.97 1029.06 1028.45 1027.83 1027.09 1026.38 1025.85 1025.28 1024.85 1024.72 1024.21 1023.90 1023.38 1022.90 1022.37 1021.95 1021.61 1021.05 1020.38 1019.78 1019.16 1018.53 1017.90 1017.36 1017.02
1016.67 1017.66 1018.81 1019.72 1021.08 1022.35 1023.44 1024.63 1025.76 1026.75 1027.68 1028.50 1029.04 1030.08 1031.41 1031.85 1032.05 1032.06 1032.06 1031.97 1031.73 1031.53 1031.18 1030.68 1029.98 1029.35 1029.06 1028.37 1027.66 1027.20 1026.67 1026.17 1025.70 1025.42 1024.82 1024.42 1024.15 1023.65 1022.96 1022.60 1022.12 1021.58 1020.87 1020.34 1019.67 1019.25 1018.58 1017.86 1017.41
1017.32 1018.21 1019.69 1020.58 1021.55 1022.81 1023.98 1025.31 1026.70 1027.42 1028.76 1029.30 1029.61 1030.35 1031.37 1031.83 1032.14 1032.16 1032.06 1031.92 1031.67 1031.45 1031.14 1030.82 1030.48 1030.19 1029.64 1028.80 1028.32 1027.90 1027.34 1026.81 1026.34 1026.01 1025.63 1025.15 1024.81 1024.23 1023.68 1023.29 1022.68 1022.08 1021.38 1020.86 1020.17 1019.79 1019.21 1018.44 1017.89
1017.67 1018.94 1020.48 1021.20 1022.02 1023.22 1024.60 1025.67 1027.62 1028.63 1029.13 1030.07 1030.47 1030.79 1031.35 1031.80 1032.16 1032.25 1032.24 1032.13 1031.88 1031.63 1031.52 1031.26 1030.75 1030.25 1029.79 1029.14 1028.95 1028.37 1027.69 1027.21 1026.81 1026.40 1026.07 1025.71 1025.35 1024.95 1024.42 1024.03 1023.31 1022.71 1021.92 1021.30 1020.61 1020.13 1019.45 1019.02 1018.34
1018.81 1020.13 1021.35 1022.06 1022.40 1023.53 1024.88 1025.85 1027.36 1028.61 1029.44 1030.36 1030.84 1031.26 1031.63 1032.03 1032.30 1032.39 1032.39 1032.37 1032.20 1032.05 1031.74 1031.52 1031.21 1030.93 1030.48 1029.75 1029.43 1028.93 1028.54 1028.23 1027.81 1027.47 1026.99 1026.58 1026.07 1025.78 1025.19 1024.65 1023.95 1023.21 1022.33 1021.67 1021.01 1020.45 1019.90 1019.40 1018.86
1020.13 1021.25 1021.99 1022.79 1023.07 1023.71 1024.98 1026.47 1027.45 1028.28 1029.21 1029.49 1030.24 1031.31 1031.97 1032.33 1032.49 1032.59 1032.78 1032.82 1032.81 1032.64 1032.26 1031.96 1031.54 1031.20 1030.81 1030.39 1030.02 1029.55 1029.11 1028.70 1028.32 1027.98 1027.55 1027.12 1026.61 1026.22 1025.63 1024.92 1024.36 1023.89 1023.11 1022.41 1021.62 1020.89 1020.35 1020.00 1019.34
1021.03 1022.24 1022.48 1023.18 1023.70 1024.42 1025.51 1026.68 1027.82 1028.58 1029.05 1029.18 1030.34 1031.29 1031.94 1032.30 1032.50 1032.65 1032.73 1032.74 1032.63 1032.44 1032.26 1032.07 1031.78 1031.47 1031.18 1030.83 1030.48 1030.22 1029.84 1029.41 1028.97 1028.50 1027.97 1027.49 1027.11 1026.53 1026.01 1025.55 1025.00 1024.34 1023.72 1023.18 1022.38 1021.57 1020.97 1020.26 1019.60
1021.70 1022.89 1023.52 1024.12 1024.51 1025.25 1026.04 1027.08 1027.89 1029.22 1029.69 1030.10 1030.72 1031.36 1031.81 1032.19 1032.44 1032.59 1032.67 1032.75 1032.70 1032.47 1032.35 1032.09 1031.81 1031.54 1031.28 1030.97 1030.76 1030.38 1029.99 1029.62 1029.36 1028.96 1028.59 1028.06 1027.40 1026.98 1026.43 1025.95 1025.45 1024.92 1024.22 1023.68 1022.95 1022.12 1021.20 1020.43 1019.62
1022.32 1023.01 1023.96 1024.48 1024.99 1025.63 1026.47 1027.78 1028.04 1029.80 1030.10 1030.49 1030.94 1031.45 1031.88 1032.14 1032.43 1032.61 1032.68 1032.67 1032.51 1032.42 1032.18 1031.95 1031.59 1031.43 1031.30 1031.08 1030.88 1030.65 1030.34 1029.96 1029.63 1029.22 1028.80 1028.38 1027.95 1027.54 1026.87 1026.41 1025.80 1025.20 1024.75 1024.18 1023.33 1022.48 1021.63 1020.79 1020.15
1022.51 1023.45 1024.09 1024.63 1025.07 1025.72 1026.31 1027.79 1027.82 1028.74 1029.95 1030.52 1031.19 1031.78 1032.23 1032.55 1032.72 1032.88 1033.00 1032.95 1032.95 1032.87 1032.82 1032.57 1032.07 1031.90 1031.73 1031.45 1031.15 1030.78 1030.50 1030.14 1029.77 1029.35 1028.91 1028.52 1028.15 1027.72 1027.17 1026.62 1025.93 1025.40 1024.86 1024.20 1023.42 1022.42 1021.98 1021.08 1020.04
1022.93 1023.48 1024.22 1024.60 1025.00 1025.90 1026.50 1026.36 1027.75 1028.90 1029.76 1030.59 1031.28 1031.88 1032.26 1032.60 1032.81 1032.93 1033.01 1033.02 1032.96 1032.84 1032.63 1032.39 1032.18 1031.95 1031.59 1031.19 1030.82 1030.57 1030.30 1030.01 1029.70 1029.38 1028.98 1028.54 1028.22 1027.84 1027.29 1026.82 1026.21 1025.65 1024.97 1024.25 1023.61 1022.68 1022.11 1021.31 1020.27
1023.64 1023.96 1024.39 1024.77 1025.18 1025.66 1026.56 1026.34 1027.50 1028.88 1029.73 1030.52 1031.28 1031.83 1032.23 1032.47 1032.54 1032.59 1032.66 1032.73 1032.68 1032.59 1032.34 1031.96 1031.66 1031.39 1031.26 1031.02 1030.61 1030.28 1029.96 1029.70 1029.35 1029.07 1028.83 1028.48 1028.10 1027.78 1027.42 1026.86 1026.19 1025.70 1025.10 1024.44 1023.71 1023.14 1022.52 1021.34 1020.12
1023.79 1024.12 1024.32 1024.73 1025.45 1025.87 1026.39 1026.37 1027.72 1028.90 1029.82 1030.42 1031.33 1031.93 1032.26 1032.35 1032.41 1032.57 1032.64 1032.71 1032.70 1032.53 1032.24 1031.94 1031.68 1031.55 1031.36 1031.12 1030.81 1030.34 1029.91 1029.58 1029.42 1029.09 1028.63 1028.28 1027.95 1027.63 1027.32 1026.81 1026.22 1025.71 1025.04 1024.58 1023.87 1023.28 1022.59 1021.64 1020.46
1023.70 1024.13 1024.58 1024.87 1025.69 1026.08 1025.83 1026.30 1027.06 1028.21 1029.49 1030.41 1031.30 1031.81 1032.14 1032.34 1032.50 1032.61 1032.56 1032.45 1032.35 1032.21 1031.96 1031.77 1031.55 1031.37 1031.17 1030.99 1030.64 1030.20 1029.65 1029.23 1028.96 1028.72 1028.32 1028.00 1027.66 1027.38 1027.05 1026.65 1026.08 1025.65 1025.11 1024.52 1023.89 1023.22 1022.57 1021.32 1020.69
1024.42 1024.76 1024.96 1025.26 1025.84 1026.32 1025.77 1025.39 1026.03 1027.32 1028.30 1029.61 1030.66 1031.49 1031.83 1032.13 1032.26 1032.29 1032.32 1032.19 1032.06 1032.08 1032.04 1031.83 1031.51 1031.12 1030.91 1030.69 1030.52 1030.15 1029.70 1029.09 1028.78 1028.27 1027.82 1027.54 1027.16 1026.86 1026.44 1026.00 1025.72 1025.36 1024.74 1024.31 1023.76 1023.29 1022.67 1021.63 1021.17
1025.33 1025.52 1025.77 1026.28 1026.32 1026.46 1026.64 1024.78 1025.58 1027.60 1028.68 1029.79 1030.74 1031.20 1031.51 1031.62 1031.79 1031.77 1031.68 1031.66 1031.76 1031.82 1031.82 1031.61 1031.25 1030.92 1030.66 1030.41 1030.09 1029.76 1029.50 1029.01 1028.52 1028.02 1027.54 1027.16 1026.87 1026.45 1026.05 1025.58 1025.21 1024.90 1024.61 1024.07 1023.56 1023.17 1022.78 1021.92 1021.49
1026.26 1026.19 1026.60 1026.91 1027.20 1027.67 1027.23 1026.36 1025.82 1027.30 1028.56 1029.31 1030.03 1030.83 1031.14 1031.36 1031.51 1031.54 1031.30 1031.14 1031.28 1031.29 1031.29 1031.16 1030.95 1030.59 1030.19 1030.08 1029.87 1029.63 1029.38 1028.79 1028.28 1027.86 1027.23 1026.77 1026.42 1026.03 1025.63 1025.16 1024.78 1024.40 1024.07 1023.70 1023.35 1022.81 1022.66 1022.16 1021.26
1025.89 1026.22 1026.84 1027.23 1027.51 1028.33 1028.00 1028.94 1025.86 1027.71 1028.66 1029.31 1029.96 1030.36 1030.77 1030.92 1031.00 1031.13 1031.15 1031.10 1030.98 1030.89 1030.84 1030.77 1030.66 1030.25 1029.91 1029.74 1029.62 1029.28 1028.86 1028.50 1027.93 1027.46 1026.83 1026.30 1025.89 1025.60 1025.20 1024.74 1024.29 1023.84 1023.47 1023.14 1022.98 1022.66 1022.37 1021.92 1021.50
1026.65 1026.97 1027.32 1027.68 1027.95 1028.16 1027.82 1029.13 1026.44 1027.69 1027.76 1028.92 1029.83 1030.30 1030.34 1030.58 1030.81 1031.04 1031.15 1031.14 1030.88 1030.67 1030.58 1030.49 1030.36 1030.00 1029.71 1029.47 1029.20 1028.89 1028.51 1028.03 1027.42 1026.87 1026.46 1025.93 1025.42 1024.95 1024.55 1024.16 1023.72 1023.32 1022.92 1022.51 1022.25 1022.05 1021.82 1021.56 1021.26
1026.99 1027.05 1027.31 1027.74 1028.07 1027.34 1027.85 1029.28 1026.05 1027.14 1028.23 1028.89 1029.34 1029.67 1030.07 1030.25 1030.55 1030.95 1031.05 1030.97 1030.77 1030.72 1030.47 1030.31 1029.99 1029.74 1029.38 1029.07 1028.78 1028.42 1028.01 1027.53 1027.00 1026.47 1026.01 1025.50 1024.88 1024.32 1023.76 1023.48 1023.10 1022.73 1022.39 1022.04 1021.69 1021.38 1021.10 1020.87 1020.60
1026.70 1026.81 1027.21 1027.69 1028.04 1027.94 1028.77 1027.83 1026.16 1027.64 1028.39 1029.18 1029.47 1029.57 1029.92 1030.06 1030.23 1030.51 1030.72 1030.75 1030.74 1030.42 1030.28 1030.17 1029.97 1029.48 1029.01 1028.67 1028.29 1027.83 1027.42 1026.92 1026.41 1025.97 1025.53 1024.98 1024.36 1023.67 1023.16 1022.79 1022.43 1022.04 1021.71 1021.36 1021.02 1020.65 1020.33 1020.05 1019.72
1027.12 1027.46 1027.50 1027.81 1029.10 1029.02 1026.38 1026.26 1026.34 1027.45 1028.44 1028.99 1029.32 1029.67 1029.64 1029.62 1030.04 1030.23 1030.39 1030.48 1030.40 1030.11 1029.97 1029.86 1029.50 1029.12 1028.73 1028.29 1027.79 1027.24 1026.75 1026.30 1025.84 1025.31 1024.82 1024.26 1023.63 1022.94 1022.25 1021.89 1021.56 1021.22 1020.85 1020.53 1020.25 1019.85 1019.48 1019.28 1018.96
1026.82 1027.47 1027.89 1027.92 1028.36 1028.29 1026.34 1027.02 1026.48 1027.52 1028.27 1028.80 1029.30 1029.51 1029.51 1029.70 1029.98 1030.10 1030.26 1030.18 1029.92 1029.86 1029.60 1029.33 1029.13 1028.77 1028.29 1027.80 1027.23 1026.60 1026.06 1025.61 1025.11 1024.58 1023.96 1023.38 1022.71 1022.16 1021.63 1021.14 1020.74 1020.32 1019.95 1019.63 1019.34 1018.96 1018.64 1018.38 1018.08
1027.42 1027.46 1027.58 1027.41 1027.56 1027.93 1027.84 1024.90 1025.33 1026.26 1027.04 1027.68 1028.25 1028.73 1029.13 1029.47 1029.75 1030.04 1030.06 1029.98 1029.75 1029.59 1029.28 1028.95 1028.65 1028.27 1027.68 1027.11 1026.53 1025.97 1025.40 1024.90 1024.38 1023.79 1023.10 1022.47 1021.80 1021.22 1020.67 1020.20 1019.75 1019.30 1018.93 1018.65 1018.34 1018.01 1017.74 1017.45 1017.18
1026.46 1026.55 1026.28 1026.39 1027.06 1027.55 1028.20 1024.54 1025.09 1026.19 1026.58 1027.13 1027.86 1028.42 1028.87 1029.16 1029.44 1029.82 1029.82 1029.62 1029.43 1029.30 1028.99 1028.67 1028.25 1027.67 1027.05 1026.49 1025.91 1025.39 1024.80 1024.18 1023.58 1022.96 1022.28 1021.61 1020.91 1020.26 1019.68 1019.20 1018.70 1018.24 1017.86 1017.55 1017.30 1016.98 1016.69 1016.33 1016.03
Thickness
5708 5709 5708 5702 5686 5672 5655 5657 5654 5649 5636 5619 5627 5623 5607 5598 5599 5606 5575 5575 5578 5582 5588 5596 5602 5609 5619 5629 5635 5641 5646 5650 5657 5662 5665 5666 5670 5676 5680 5682 5687 5689 5692 5695 5697 5699 5698 5696 5697
5708 5708 5702 5684 5672 5663 5657 5654 5645 5633 5631 5618 5612 5609 5603 5584 5583 5576 5569 5566 5571 5576 5581 5591 5596 5603 5610 5619 5621 5630 5637 5642 5647 5651 5655 5658 5661 5667 5670 5672 5676 5682 5686 5690 5692 5693 5694 5692 5691
5706 5704 5691 5671 5653 5658 5654 5642 5632 5623 5620 5623 5605 5591 5581 5569 5571 5565 5561 5564 5569 5575 5576 5577 5587 5595 5603 5608 5612 5620 5625 5630 5637 5641 5645 5648 5651 5656 5660 5663 5667 5672 5678 5683 5686 5687 5688 5687 5688
5699 5695 5678 5668 5654 5644 5643 5634 5630 5623 5617 5610 5596 5579 5568 5561 5564 5559 5560 5562 5564 5566 5571 5578 5585 5587 5596 5601 5604 5612 5618 5621 5625 5629 5634 5637 5640 5645 5650 5653 5657 5664 5667 5673 5678 5682 5683 5684 5683
5691 5682 5665 5650 5642 5637 5631 5627 5627 5622 5606 5598 5601 5573 5567 5561 5559 5558 5559 5561 5564 5566 5568 5567 5574 5584 5591 5593 5599 5603 5606 5611 5614 5617 5620 5624 5627 5632 5637 5642 5645 5652 5658 5662 5667 5673 5678 5681 5682
5682 5674 5663 5654 5642 5632 5625 5619 5615 5604 5597 5591 5588 5577 5561 5556 5556 5555 5556 5557 5557 5559 5561 5566 5567 5573 5576 5578 5585 5591 5595 5601 5605 5605 5608 5612 5617 5622 5626 5630 5633 5638 5646 5651 5657 5663 5669 5673 5677
5675 5665 5655 5645 5638 5632 5626 5610 5602 5593 5588 5582 5579 5570 5558 5552 5550 5549 5548 5549 5550 5552 5555 5559 5564 5568 5569 5572 5576 5579 5583 5588 5592 5593 5598 5602 5605 5609 5615 5618 5622 5627 5635 5641 5648 5651 5657 5665 5669
5667 5660 5644 5638 5637 5634 5615 5601 5589 5588 5572 5570 5567 5565 5556 5548 5545 5543 5544 5545 5546 5548 5550 5552 5553 5555 5558 5563 5566 5568 5572 5577 5580 5583 5586 5590 5592 5598 5603 5605 5610 5616 5623 5628 5636 5640 5645 5653 5658
5665 5652 5641 5637 5637 5624 5604 5600 5576 5569 5566 5555 5553 5552 5548 5543 5540 5538 5538 5538 5539 5539 5539 5541 5544 5548 5550 5553 5554 5558 5563 5566 5570 5574 5576 5579 5581 5583 5587 5592 5597 5602 5609 5615 5623 5629 5636 5640 5648
5652 5640 5633 5624 5625 5614 5598 5596 5578 5569 5560 5550 5545 5543 5540 5537 5534 5532 5530 5530 5531 5530 5531 5532 5533 5534 5536 5540 5542 5545 5547 5549 5552 5554 5558 5561 5565 5567 5571 5576 5583 5589 5597 5604 5610 5616 5623 5629 5635
5635 5632 5623 5612 5610 5610 5597 5582 5576 5571 5564 5556 5548 5536 5530 5526 5523 5522 5519 5517 5517 5517 5519 5520 5522 5523 5525 5526 5528 5530 5532 5534 5537 5539 5543 5545 5548 5553 5558 5563 5568 5572 5579 5586 5595 5602 5609 5613 5622
5629 5613 5617 5609 5604 5600 5590 5576 5561 5557 5555 5552 5540 5531 5523 5518 5514 5511 5509 5507 5507 5507 5507 5507 5507 5508 5509 5511 5512 5512 5514 5515 5517 5520 5525 5529 5531 5535 5539 5545 5551 5556 5561 5568 5575 5584 5592 5599 5607
5619 5605 5595 5588 5582 5576 5574 5565 5556 5540 5538 5535 5529 5522 5516 5510 5506 5503 5500 5498 5496 5496 5494 5494 5493 5493 5493 5494 5494 5496 5498 5500 5501 5502 5503 5507 5512 5516 5520 5525 5530 5536 5543 5549 5556 5565 5575 5585 5593
5606 5597 5587 5584 5577 5570 5562 5547 5553 5530 5528 5524 5519 5512 5506 5503 5497 5493 5490 5488 5487 5484 5483 5481 5481 5480 5479 5477 5476 5476 5476 5477 5479 5481 5485 5489 5490 5493 5498 5502 5508 5515 5521 5528 5536 5545 5555 5566 5574
5598 5592 5585 5578 5575 5566 5558 5548 5549 5533 5522 5516 5509 5501 5494 5489 5485 5481 5477 5474 5470 5468 5465 5463 5464 5462 5459 5458 5456 5456 5455 5456 5457 5459 5462 5465 5469 5474 5478 5481 5486 5493 5500 5508 5516 5526 5533 5546 5558
5591 5587 5589 5571 5567 5555 5555 5592 5530 5521 5515 5507 5498 5490 5484 5478 5472 5468 5464 5460 5458 5456 5455 5453 5450 5448 5447 5445 5443 5441 5437 5436 5435 5434 5435 5437 5440 5445 5452 5458 5464 5469 5475 5484 5493 5503 5512 5523 5537
5575 5591 5575 5569 5550 5551 5544 5566 5523 5510 5505 5497 5487 5480 5473 5467 5463 5458 5454 5450 5447 5444 5442 5441 5439 5437 5434 5430 5429 5425 5422 5417 5412 5409 5410 5411 5413 5415 5420 5426 5435 5444 5451 5457 5467 5476 5487 5501 5516
5574 5575 5567 5567 5544 5538 5537 5542 5509 5500 5494 5488 5475 5467 5461 5456 5451 5444 5440 5435 5432 5429 5427 5425 5421 5418 5415 5412 5409 5406 5402 5398 5393 5390 5386 5381 5381 5382 5384 5392 5402 5411 5422 5429 5439 5449 5460 5475 5490
5562 5560 5557 5548 5527 5521 5530 5534 5511 5498 5487 5472 5461 5454 5448 5443 5436 5430 5426 5423 5420 5416 5413 5409 5405 5400 5397 5393 5389 5387 5384 5378 5371 5366 5362 5358 5355 5353 5354 5356 5362 5371 5386 5397 5408 5419 5432 5450 5463
5549 5547 5543 5531 5519 5513 5517 5527 5518 5494 5486 5471 5457 5444 5438 5431 5425 5420 5414 5411 5407 5400 5394 5389 5386 5382 5376 5372 5365 5361 5358 5353 5345 5340 5334 5329 5325 5321 5320 5321 5325 5333 5346 5359 5373 5386 5400 5419 5430
5533 5532 5522 5520 5505 5498 5492 5527 5500 5477 5467 5456 5443 5436 5429 5422 5416 5410 5406 5400 5392 5384 5377 5372 5367 5361 5356 5350 5344 5338 5331 5327 5323 5314 5308 5301 5296 5293 5292 5292 5293 5297 5304 5316 5331 5349 5365 5385 5395
5534 5509 5502 5498 5496 5508 5479 5543 5497 5465 5457 5451 5439 5425 5418 5412 5404 5397 5394 5387 5379 5371 5363 5356 5349 5342 5336 5328 5321 5313 5305 5300 5291 5282 5277 5269 5263 5262 5263 5266 5270 5274 5278 5285 5293 5308 5327 5347 5365
5523 5498 5489 5482 5475 5454 5468 5469 5504 5452 5452 5435 5423 5414 5404 5396 5391 5385 5378 5371 5363 5356 5348 5340 5331 5324 5316 5307 5295 5288 5279 5268 5260 5250 5248 5246 5247 5247 5249 5253 5258 5262 5266 5270 5274 5281 5292 5310 5328
5490 5478 5470 5459 5455 5464 5461 5459 5504 5455 5442 5418 5408 5403 5397 5386 5378 5370 5361 5353 5346 5338 5330 5323 5314 5305 5295 5284 5272 5260 5248 5239 5234 5231 5232 5234 5235 5237 5239 5242 5246 5250 5253 5258 5263 5267 5273 5280 5294
5479 5480 5507 5500 5475 5516 5439 5430 5483 5437 5412 5411 5402 5397 5385 5374 5363 5352 5342 5333 5328 5318 5311 5303 5295 5284 5273 5261 5248 5235 5224 5219 5219 5221 5222 5223 5226 5228 5230 5232 5234 5236 5239 5242 5247 5254 5261 5265 5272
5472 5474 5488 5498 5494 5473 5402 5430 5470 5401 5385 5381 5375 5371 5376 5365 5350 5340 5329 5319 5311 5304 5293 5283 5273 5262 5251 5237 5225 5216 5210 5210 5211 5212 5213 5215 5217 5219 5219 5220 5221 5222 5224 5227 5231 5239 5246 5253 5259
5457 5453 5434 5405 5373 5401 5445 5436 5414 5403 5398 5384 5372 5367 5361 5353 5339 5327 5316 5306 5296 5288 5276 5264 5254 5242 5227 5216 5209 5204 5203 5203 5204 5205 5205 5207 5208 5209 5210 5209 5210 5210 5212 5214 5218 5225 5231 5237 5246
5445 5430 5432 5422 5452 5433 5428 5389 5458 5382 5385 5372 5352 5349 5343 5334 5322 5313 5302 5291 5282 5270 5259 5247 5233 5221 5210 5202 5197 5198 5198 5197 5197 5198 5198 5198 5199 5198 5197 5197 5198 5200 5201 5202 5205 5211 5217 5223 5232
5423 5417 5411 5414 5402 5421 5406 5442 5386 5394 5384 5371 5352 5342 5327 5316 5305 5296 5286 5274 5265 5252 5240 5228 5215 5204 5198 5193 5192 5192 5192 5191 5191 5191 5190 5190 5190 5189 5189 5188 5188 5189 5190 5190 5194 5198 5203 5209 5217
5417 5408 5413 5441 5405 5362 5346 5404 5368 5351 5353 5344 5336 5333 5314 5305 5294 5280 5270 5260 5248 5235 5223 5210 5200 5193 5189 5187 5187 5186 5186 5186 5185 5184 5182 5181 5182 5180 5180 5179 5179 5179 5180 5181 5183 5186 5190 5196 5206